Location: Ivychurch
(51.0000°N, 0.8833°E)
Time: 03:10:42
(UTC+00:00)

Daily predictions for brighter satellites

Satellite Brightness Start Highest point End
(mag) Time Altitude Azimuth Time Altitude Azimuth Time Altitude Azimuth
Cosmos 1697 Rocket 4.4 02:35:00 29° ENE 02:35:00 29° ENE 02:39:06 10° ESE
Cosmos 2344 4.1 02:37:40 50° ESE 02:37:40 50° ESE 02:44:59 10° NE
ADEOS II 4.4 02:34:16 10° NNE 02:35:25 17° NNE 02:35:25 17° NNE
USA 238 DEB 4.5 02:41:03 45° E 02:41:03 45° E 02:46:25 10° NE
USA 238 4.5 02:41:08 44° E 02:41:08 44° E 02:46:31 10° NE
NOSS 3-2 (A) 4.5 02:44:26 41° ENE 02:44:26 41° ENE 02:49:04 10° NE
Cosmos 1980 Rocket 4.0 02:54:35 21° N 02:56:47 26° NE 03:01:26 10° E
SL-16 R/B 4.5 03:00:37 14° N 03:00:37 14° N 03:02:12 10° N
USA 234 3.5 02:53:50 10° ENE 02:59:22 66° ENE 02:59:22 66° ENE
ADEOS Rocket 3.8 02:58:08 10° SE 03:03:14 42° ENE 03:08:33 10° N
IDEFIX/ARIANE 42P 3.8 03:15:55 10° NNE 03:18:52 35° NNE 03:18:52 35° NNE
MSX 3.8 03:26:34 10° NNE 03:32:03 77° ENE 03:32:03 77° ENE
In-Cosmos 22 4.3 03:35:42 68° E 03:35:43 68° E 03:41:10 10° NNE
Cosmos 1833 Rocket 4.0 03:33:50 21° SSE 03:36:50 36° ESE 03:41:57 10° NE
Cosmos 2279 Rocket 3.9 03:30:57 10° N 03:43:01 12° S 03:43:23 10° S
CZ-4B R/B 4.0 03:34:54 10° ESE 03:37:08 21° ENE 03:37:08 21° ENE
NOSS 3-2 (C) 3.3 03:43:22 72° S 03:43:54 78° SE 03:50:36 10° NE
Cosmos 1536 Rocket 4.4 03:48:18 48° NNE 03:48:18 48° NNE 03:51:40 10° NNE
CENTAUR R/B 2.5 03:50:11 63° SSW 03:51:21 84° SE 03:58:39 10° NE
Cosmos 2369 3.8 03:49:30 39° NNW 03:51:40 74° ENE 03:57:18 10° SE
Cosmos 2082 Rocket 3.8 03:54:56 10° SSE 03:59:47 31° ESE 04:04:41 10° NE
SL-16 R/B 4.1 04:00:04 10° NNW 04:04:53 27° NE 04:09:40 10° E
PSLV R/B 3.7 04:00:53 10° NNE 04:05:11 72° ESE 04:05:31 68° SE
CZ-2C R/B 2.5 04:01:49 10° NNE 04:06:52 77° ESE 04:08:51 36° S
ARIANE 5 R/B 3.9 04:03:12 10° N 04:05:38 25° NNW 04:05:38 25° NNW
ISS -1.8 04:09:06 27° SE 04:09:06 27° SE 04:11:26 10° E
Lacrosse 4 Rocket 1.4 04:18:22 66° N 04:18:22 66° N 04:22:00 10° NNE
ADEOS II 4.1 04:15:08 10° NNW 04:16:21 14° NNW 04:16:21 14° NNW
Cosmos 1697 Rocket 2.6 04:16:50 43° NW 04:18:36 66° WSW 04:24:12 10° SSE
COSMOS 2406 3.1 04:21:37 34° SSW 04:24:15 88° WNW 04:29:58 10° NNE
Lacrosse 5 rocket 1.6 04:25:46 48° SSE 04:26:09 51° SE 04:29:51 10° ENE
Meteor 2-5 Rocket 4.1 04:22:43 10° S 04:28:23 69° E 04:34:13 10° NNE
FENGYUN 3A 4.2 04:23:27 10° NNE 04:28:51 58° E 04:34:12 10° S
Cosmos 2360 Rocket 4.3 04:24:46 10° NNW 04:29:04 22° NE 04:33:22 10° E
USA 238 DEB 3.9 04:28:30 39° W 04:30:47 54° NW 04:37:41 10° NE
USA 238 3.9 04:28:35 39° W 04:30:53 55° NW 04:37:47 10° NE
PAYLOAD A 4.0 04:28:23 10° N 04:33:23 60° WNW 04:35:50 30° SW
NOSS 3-2 (A) 3.9 04:31:50 37° WNW 04:33:43 48° NNW 04:40:26 10° NE
Cosmos 1726 Rocket 3.6 04:33:59 10° N 04:38:28 84° E 04:42:56 10° SSE
SAR-Lupe-4 3.7 04:35:12 10° SSE 04:38:46 72° ENE 04:42:21 10° N
ATLAS 3B R/B 3.0 04:33:09 10° SSW 04:39:37 63° SE 04:46:12 10° NE
Cosmos 1025 Rocket 4.5 04:42:14 23° NNW 04:42:14 23° NNW 04:44:27 10° N
ERS-2 3.1 04:37:04 10° S 04:39:17 33° SSW 04:39:17 33° SSW
Cosmos 967 Rocket 4.5 04:37:13 26° NW 04:40:42 57° WSW 04:46:49 10° SSE
Cosmos 1980 Rocket 2.0 04:36:25 13° NNW 04:41:25 78° WSW 04:47:00 10° SSE
Abrixas rocket 3.7 04:43:59 23° SSE 04:43:59 23° SSE 04:45:37 10° SE
USA 234 3.6 04:36:51 10° ENE 04:43:13 56° N 04:46:42 27° WNW
Cosmos 2228 2.9 04:39:16 10° NNW 04:43:36 67° W 04:47:57 10° S
Meteor 2-13 Rocket 4.4 04:40:35 10° S 04:46:43 86° ESE 04:52:54 10° N
Cosmos 1092 Rocket 4.1 04:41:34 10° S 04:47:43 79° E 04:53:59 10° NNE
Geosat 4.1 04:43:14 10° S 04:48:07 50° WSW 04:51:08 22° NW
ADEOS Rocket 3.2 04:43:57 10° SSW 04:48:56 35° W 04:54:05 10° NNW
ADEOS 3.6 04:44:42 10° NNE 04:49:58 86° ESE 04:55:13 10° SSW
Cosmos 1269 Rocket 4.4 04:49:47 33° W 04:51:28 42° WNW 04:56:32 10° NNE
CZ-3 R/B 4.5 04:35:59 13° WSW 04:51:39 26° SSW 04:59:18 10° SE
Cosmos 2344 3.9 04:47:42 27° W 04:51:46 53° NNW 05:00:18 10° NE
Nadezhda 4 Rocket 3.9 04:45:55 10° SSW 04:51:59 65° WNW 04:58:08 10° N
Aureole 3 3.7 04:48:01 10° N 04:52:03 79° E 04:57:10 10° SSE
Cosmos 1606 Rocket 3.6 04:49:54 10° NNW 04:54:18 56° W 04:58:40 10° S
Cosmos 1400 Rocket 2.6 04:51:02 10° NNW 04:55:00 76° W 04:58:53 10° S
SJ-6F 4.3 04:51:36 10° N 04:55:40 65° WNW 04:59:44 10° SSW
CZ-4B R/B 4.1 04:51:25 10° NNE 04:55:41 74° ESE 04:59:43 10° S
SAR-Lupe-1 3.9 04:53:04 10° S 04:56:38 77° WSW 05:00:15 10° NNW
IDEFIX/ARIANE 42P 4.1 04:56:38 10° NNW 04:59:41 18° NW 04:59:41 18° NW
COSMO-SKYMED 1 2.5 05:02:36 10° SSE 05:06:57 83° WSW 05:11:20 10° NNW
Cosmos 1300 3.0 05:04:51 10° NNW 05:08:30 43° W 05:12:07 10° SSW
ARGOS Delta rocket 4.2 05:03:35 10° NNE 05:09:01 87° ESE 05:14:32 10° SSW
CZ-4B R/B 2.1 05:06:32 10° SSW 05:09:41 33° W 05:10:16 30° WNW
ALOS 2.2 05:07:03 10° N 05:11:42 63° WNW 05:16:18 10° SSW
Cosmos 2278 3.9 05:06:22 10° NW 05:11:46 47° WSW 05:17:08 10° S
Meteor 2-10 Rocket 3.6 05:08:08 10° N 05:13:10 75° ENE 05:18:15 10° SSE
Cosmos 2322 Rocket 2.9 05:07:46 10° NNW 05:13:23 54° NE 05:18:55 10° SE
Cosmos 1689 Rocket 1.9 05:13:23 10° S 05:16:17 61° WSW 05:19:11 10° NNW
Cosmos 1674 4.4 05:17:27 16° NW 05:17:27 16° NW 05:19:03 10° NNW
Cosmos 1626 2.7 05:14:34 18° SW 05:16:44 33° WNW 05:20:08 10° N
SL-14 R/B 3.6 05:13:06 10° SSW 05:16:55 43° WNW 05:20:48 10° N
Meteor 2-8 Rocket 4.4 05:12:41 10° NNW 05:18:54 80° W 05:25:03 10° S
Cosmos 1833 Rocket 2.9 05:15:37 12° SW 05:20:38 48° NW 05:26:08 10° NNE
deb Chang Zheng 4 3.6 05:17:34 10° N 05:21:45 56° WNW 05:25:55 10° SSW
MOS 1 Rocket 4.2 05:18:10 10° SE 05:22:14 45° ENE 05:26:22 10° N
deb Kosmos-1763 4.5 05:20:54 18° WSW 05:23:09 38° WNW 05:26:33 10° N
METEOR-M 4.1 05:19:21 10° N 05:24:41 66° WNW 05:29:57 10° SSW
Cosmos 2084 3.9 05:20:38 10° SSW 05:24:55 66° SE 05:29:19 10° NE
H-2A R/B 4.4 05:22:34 10° NNE 05:26:39 36° E 05:30:35 10° SSE
Cosmos 1315 Rocket 2.9 05:22:39 10° NNW 05:26:48 85° E 05:30:55 10° SSE
SJ-12 3.8 05:23:22 10° N 05:27:31 77° WNW 05:31:36 10° SSW
Cosmos 2058 Rocket 3.3 05:24:27 10° NNW 05:28:48 50° W 05:33:07 10° SSW
SL-19 R/B 3.5 05:26:16 10° N 05:29:03 53° WNW 05:31:50 10° SSW
Elektron 1 3.7 05:27:47 10° SW 05:30:46 82° SE 05:33:51 10° NE
Cosmos 1484 Rocket 3.3 05:27:28 10° N 05:31:01 35° WNW 05:34:31 10° SW
Okean 1-7 Rocket 3.6 05:27:07 10° SSW 05:31:39 72° WNW 05:36:11 10° N
H-2A R/B 3.7 05:29:48 10° NNE 05:33:33 52° E 05:37:18 10° S
NOSS 3-2 (C) 4.2 05:30:50 15° W 05:35:27 39° NNW 05:42:02 10° NE
Cosmos 1553 Rocket 3.9 05:29:58 10° NNW 05:36:07 77° W 05:42:10 10° S
Cosmos 1428 Rocket 4.5 05:30:27 10° SSW 05:36:38 66° WNW 05:42:48 10° N
Cosmos 1461 3.4 05:34:20 10° WSW 05:38:50 51° NW 05:43:30 10° NE
Meteor 1-24 Rocket 4.0 05:34:36 10° SW 05:40:04 47° WNW 05:45:46 10° N
Meteor PRIRODA 3.5 05:36:28 10° N 05:40:08 72° WNW 05:43:47 10° SSW
Cosmos 1892 Rocket 3.9 05:36:07 10° SW 05:40:17 43° WNW 05:44:30 10° N
CREW DRAGON DEMO-1 DEB 3.8 05:40:30 16° W 05:42:28 33° SSW 05:45:13 10° SE
USA 290 3.0 05:39:51 10° WSW 05:42:48 32° WNW 05:45:47 10° N
CENTAUR R/B 3.4 05:37:23 13° W 05:42:49 40° NNW 05:50:00 10° NE
Cosmos 2082 Rocket 2.3 05:38:10 10° SW 05:43:38 53° NW 05:49:10 10° NNE
CZ-2C R/B 3.8 05:40:59 10° NNW 05:44:31 20° NW 05:47:57 10° W
ISS -3.7 05:42:03 13° WSW 05:45:01 85° SSE 05:48:24 10° E
Cosmos 614 Rocket 3.9 05:40:24 10° SSW 05:45:33 82° WNW 05:50:43 10° NNE
Cosmos 2026 Rocket 4.2 05:42:55 10° SSW 05:49:08 53° WNW 05:55:23 10° N
SL-16 R/B 2.2 05:43:55 10° NNW 05:49:36 76° WSW 05:55:16 10° SSE
Meteor 2-15 4.4 05:46:35 10° NNW 05:52:37 68° W 05:58:38 10° S
Cosmos 2251 Rocket 3.9 05:48:14 10° SW 05:53:20 43° WNW 05:58:25 10° NNE
SKYMED 2 4.4 05:51:25 10° SSW 05:55:13 29° W 05:59:04 10° NNW
Meteor 1-31 Rocket 3.7 05:52:20 10° N 05:55:43 28° WNW 05:59:05 10° SW
Cosmos 1455 2.2 05:52:55 10° NNW 05:56:45 59° W 06:00:33 10° S
Lacrosse 4 Rocket 3.1 05:54:42 10° WNW 05:57:17 17° NNW 05:59:57 10° N
COSMOS 2428 4.4 05:53:21 10° NNW 05:58:23 30° NE 06:03:23 10° ESE
[s.n.46727] 2.5 05:56:50 10° WSW 05:59:36 86° SSE 06:02:21 10° ENE
[s.n.46723] 2.6 05:56:52 10° WSW 05:59:41 87° SSE 06:02:29 10° ENE
[s.n.46707] 2.5 05:57:01 10° WSW 05:59:46 87° SSE 06:02:32 10° ENE
Cosmos 2333 Rocket 3.6 05:54:33 10° NNW 05:59:46 35° NE 06:04:56 10° ESE
[s.n.46708] 2.5 05:57:06 10° WSW 05:59:52 87° SSE 06:02:38 10° ENE
[s.n.46719] 2.5 05:57:12 10° WSW 05:59:58 87° SSE 06:02:43 10° ENE
[s.n.46724] 2.5 05:57:17 10° WSW 06:00:02 87° SSE 06:02:48 10° ENE
[s.n.46687] 2.5 05:57:22 10° WSW 06:00:07 87° S 06:02:53 10° ENE
[s.n.46696] 2.5 05:57:28 10° WSW 06:00:13 87° S 06:02:59 10° ENE
[s.n.46720] 2.5 05:57:34 10° WSW 06:00:19 87° SSE 06:03:05 10° ENE
[s.n.46676] 2.5 05:57:39 10° WSW 06:00:24 87° SSE 06:03:10 10° ENE
[s.n.46721] 2.5 05:57:45 10° WSW 06:00:30 87° SSE 06:03:16 10° ENE
[s.n.46728] 2.5 05:57:50 10° WSW 06:00:35 87° SSE 06:03:21 10° ENE
[s.n.46690] 2.5 05:57:55 10° WSW 06:00:41 88° SSE 06:03:27 10° ENE
[s.n.46694] 2.5 05:57:59 10° WSW 06:00:44 88° SSE 06:03:31 10° ENE
[s.n.46702] 2.5 05:58:07 10° WSW 06:00:52 88° SSE 06:03:38 10° ENE
YAOGAN 6 3.3 05:57:12 10° NNE 06:00:52 61° E 06:04:30 10° S
Meteor 2-1 Rocket 4.4 05:55:22 10° NNW 06:00:55 57° W 06:06:32 10° S
[s.n.46679] 2.5 05:58:10 10° WSW 06:00:56 88° SSE 06:03:42 10° ENE
[s.n.46704] 2.6 05:58:13 10° WSW 06:01:01 88° SSE 06:03:50 10° ENE
[s.n.46712] 2.5 05:58:19 10° WSW 06:01:04 88° SSE 06:03:50 10° ENE
[s.n.46711] 2.5 05:58:28 10° WSW 06:01:12 88° SSE 06:03:59 10° ENE
[s.n.46684] 2.5 05:58:30 10° WSW 06:01:15 88° S 06:04:01 10° ENE
CZ-4B R/B 3.3 05:57:29 10° N 06:01:15 41° WNW 06:05:12 10° SW
[s.n.46706] 2.5 05:58:38 10° WSW 06:01:24 88° SE 06:04:09 10° ENE
[s.n.46678] 2.6 05:58:36 10° WSW 06:01:25 88° SSE 06:04:14 10° ENE
Cosmos 1697 Rocket 4.4 05:59:32 10° WNW 06:01:28 12° W 06:03:24 10° WSW
Spot 2 4.2 05:57:01 10° NNE 06:01:31 84° WNW 06:06:18 10° SSW
[s.n.46677] 2.5 05:58:46 10° WSW 06:01:32 88° SSE 06:04:18 10° ENE
[s.n.46671] 2.5 05:58:51 10° WSW 06:01:37 88° SE 06:04:23 10° ENE
[s.n.46675] 2.5 05:58:57 10° WSW 06:01:43 89° SSE 06:04:29 10° ENE
[s.n.46674] 2.5 05:59:03 10° WSW 06:01:48 89° SSE 06:04:35 10° ENE
[s.n.46698] 2.5 05:59:09 10° WSW 06:01:54 89° SE 06:04:39 10° ENE
[s.n.46699] 2.6 05:59:10 10° WSW 06:01:58 89° SSE 06:04:47 10° ENE
[s.n.46715] 2.5 05:59:20 10° WSW 06:02:05 89° S 06:04:51 10° ENE
[s.n.46714] 2.5 05:59:25 10° WSW 06:02:10 89° SSE 06:04:56 10° ENE
[s.n.46726] 2.5 05:59:30 10° WSW 06:02:15 89° SSW 06:05:02 10° ENE
[s.n.46703] 2.5 05:59:35 10° WSW 06:02:21 89° SE 06:05:07 10° ENE
[s.n.46713] 2.5 05:59:42 10° WSW 06:02:27 89° SE 06:05:13 10° ENE
[s.n.46717] 2.5 05:59:46 10° WSW 06:02:33 89° ESE 06:05:19 10° ENE
[s.n.46691] 2.6 05:59:49 10° WSW 06:02:37 90° SSE 06:05:27 10° ENE
[s.n.46693] 2.5 05:59:58 10° WSW 06:02:43 90° SSW 06:05:29 10° ENE
[s.n.46672] 2.5 06:00:03 10° WSW 06:02:49 90° SE 06:05:35 10° ENE
[s.n.46701] 2.5 06:00:09 10° WSW 06:02:54 90° SSE 06:05:40 10° ENE
[s.n.46685] 2.5 06:00:14 10° WSW 06:02:59 89° WSW 06:05:46 10° ENE
[s.n.46709] 2.5 06:00:20 10° WSW 06:03:05 90° SSE 06:05:52 10° ENE
[s.n.46683] 2.5 06:00:24 10° WSW 06:03:09 90° WSW 06:05:56 10° ENE
[s.n.46695] 2.5 06:00:30 10° WSW 06:03:15 89° ENE 06:06:02 10° ENE
[s.n.46688] 2.5 06:00:37 10° WSW 06:03:22 90° WNW 06:06:08 10° ENE
[s.n.46729] 2.5 06:00:40 10° WSW 06:03:26 89° W 06:06:13 10° ENE
[s.n.46697] 2.5 06:00:44 10° WSW 06:03:30 89° NE 06:06:16 10° ENE
[s.n.46725] 2.5 06:00:48 10° WSW 06:03:34 90° NNW 06:06:20 10° ENE
[s.n.46682] 2.5 06:00:54 10° WSW 06:03:40 89° N 06:06:26 10° ENE
[s.n.46680] 2.5 06:01:01 10° WSW 06:03:46 89° NNE 06:06:32 10° ENE
[s.n.46718] 2.5 06:01:06 10° WSW 06:03:52 89° NNE 06:06:38 10° ENE
[s.n.46710] 2.5 06:01:11 10° WSW 06:03:57 89° NNW 06:06:43 10° ENE
[s.n.46673] 2.5 06:01:22 10° WSW 06:04:08 89° N 06:06:54 10° ENE
Cosmos 1626 Rocket 3.6 05:59:45 10° SSW 06:04:12 67° WNW 06:08:40 10° N
[s.n.46700] 2.5 06:01:28 10° WSW 06:04:14 89° NNW 06:07:00 10° ENE
[s.n.46705] 2.5 06:01:33 10° WSW 06:04:19 89° NNW 06:07:06 10° ENE
[s.n.46692] 2.5 06:01:40 10° WSW 06:04:25 89° NW 06:07:12 10° ENE
[s.n.46686] 2.5 06:01:45 10° WSW 06:04:31 89° N 06:07:17 10° ENE
[s.n.46716] 2.5 06:01:50 10° WSW 06:04:36 89° N 06:07:23 10° ENE
[s.n.46722] 2.5 06:01:56 10° WSW 06:04:41 88° NW 06:07:28 10° ENE
[s.n.46689] 2.5 06:02:01 10° WSW 06:04:47 88° N 06:07:34 10° ENE
[s.n.46681] 2.5 06:02:07 10° WSW 06:04:52 88° NW 06:07:39 10° ENE
Lacrosse 5 rocket 1.6 06:01:46 10° W 06:05:21 44° NNW 06:09:07 10° NE
Cosmos 2237 Rocket 4.3 06:01:57 10° NNW 06:05:53 19° NNE 06:09:48 10° ENE
Okean O Rocket 2.9 06:02:29 10° NNE 06:06:42 46° E 06:10:54 10° S
Cosmos-2242 3.6 06:02:22 10° N 06:06:44 65° ENE 06:11:05 10° SSE
Cosmos 1602 Rocket 3.6 06:02:46 10° SSW 06:07:13 81° WNW 06:11:43 10° N
Cosmos 1703 3.4 06:05:18 10° S 06:09:10 83° E 06:13:06 10° NNE
COSMOS 2406 4.4 06:04:54 10° W 06:09:23 23° NW 06:13:53 10° NNE
